Regional Weather Roundup
Issued by NWS New Orleans/Baton Rouge, LA

Home | Current Version | Previous Version | Graphics & Text | Print | Product List | Glossary On
Versions: 1 2 3 4 5 6 7 8 9 10 11 12 13 14 15 16 17 18 19 20 21 22 23 24 25 26 27 28 29 30 31 32 33 34 35 36 37 38 39 40 41 42 43 44 45 46 47 48 49 50
271
ASUS44 KLIX 020601
RWRLIX
NEW ORLEANS REGIONAL WEATHER ROUNDUP
NATIONAL WEATHER SERVICE NEW ORLEANS LA
100 AM CDT THU OCT 02 2014

NOTE: "FAIR" INDICATES FEW OR NO CLOUDS BELOW 12,000 FEET WITH NO
      SIGNIFICANT WEATHER AND/OR OBSTRUCTIONS TO VISIBILITY.
      SKY/WX - SKY CONDITION AND SIGNIFICANT WEATHER.
      TMP - AIR TEMPERATURE.     DP    - DEWPOINT TEMPERATURE.
      RH  - RELATIVE HUMIDITY.   PRES  - PRESSURE.
      HI  - HEAT INDEX.          WCI   - WIND CHILL INDEX.

*  THESE STATIONS ARE NOT NWS OR FAA STATIONS AND ARE NOT UNDER
   NWS QUALITY CONTROL.

LAZ038-040-048-061>063-065>067-069-020700-
SOUTHEAST LOUISIANA

CITY           SKY/WX    TMP DP  RH WIND       PRES   REMARKS
N.O. AUDUBON   NOT AVBL
N.O. INTL ARPT PTCLDY    78  75  90 SE7       29.93F
6HR MIN TEMP:  78; 6HR MAX TEMP:  81;

N.O. LAKEFRONT PTCLDY    78  76  93 SE7       29.94F
6HR MIN TEMP:  77; 6HR MAX TEMP:  81;

N.O. DOWNTOWN* CLOUDY    79  73  83 S3        29.94S
6HR MIN TEMP:  79; 6HR MAX TEMP:  81;

SLIDELL        MOCLDY    77  74  90 CALM      29.93F
6HR MIN TEMP:  76; 6HR MAX TEMP:  79;

BATON ROUGE    CLOUDY    77  75  93 SE6       29.92F
6HR MIN TEMP:  76; 6HR MAX TEMP:  78;

BOOTHVILLE     CLEAR     78  77  96 SE5       29.95F
6HR MIN TEMP:  78; 6HR MAX TEMP:  79;

BELLE CHASSE   PTCLDY    79  75  87 SE7       29.93F
6HR MIN TEMP:  77; 6HR MAX TEMP:  80;

BOGALUSA*      MOCLDY    76  72  86 CALM      29.96F
6HR MIN TEMP:  76; 6HR MAX TEMP:  80;

GALLIANO*      NOT AVBL
NEW ROADS*     CLOUDY    76  75  96 SE6       29.91F
6HR MIN TEMP:  76; 6HR MAX TEMP:  80;

GONZALES*        N/A     77  77 100 SE3       29.92S
6HR MIN TEMP:  76; 6HR MAX TEMP:  77;

HAMMOND*       NOT AVBL
HOUMA*         CLEAR    N/A N/A N/A CALM      29.93S
                                      6HR PCP:  0.01;

PORT FOURCHON* NOT AVBL

$$

MSZ070-080>082-020700-
SOUTHERN MISSISSIPPI

CITY           SKY/WX    TMP DP  RH WIND       PRES   REMARKS
MCCOMB         CLOUDY    75  73  93 SE7       29.94F
6HR MIN TEMP:  74; 6HR MAX TEMP:  78;

GULFPORT       PTCLDY    79  74  84 SE7       29.94S
6HR MIN TEMP:  78; 6HR MAX TEMP:  80;

BILOXI         PTCLDY    81  75  83 S7        29.95S
PASCAGOULA     PTCLDY    70  69  97 CALM      29.96S
6HR MIN TEMP:  70; 6HR MAX TEMP:  76;


$$

COASTAL OBSERVATIONS
LAKE AND NEARSHORE STATIONS

STATION/POSITION TIME  TEMP    WIND        PRES    WAVE
                       AIR SEA DIR/SP/G            HT/PER
                 (UTC) (F)     (DEG/KT/KT) (MB)    (FT/S)
PASCAGOULA       0500   81     150/  5/ 10 1013.9
WAVELAND YACHT   0500   80     150/ 10/ 12 1013.3
GRAND ISLE       0500   80 81  150/  5/  8 1014.5
SOUTHWEST PASS   0500          150/  5/  6   N/A
NEW CANAL        0500   78 77  150/  2/  5 1014.1
SHELL BEACH      0500   79 76  150/  7/  9 1013.7

OFFSHORE STATIONS

STATION/POSITION TIME  TEMP    WIND        PRES    WAVE
                       AIR SEA DIR/SP/G            HT/PER
                 (UTC) (F)     (DEG/KT/KT) (MB)    (FT/S)
64 S DAUPHIN ISL 0530   81 82  140/ 12/ 14 1014.6    1/ 3

$$




USA.gov is the U.S. government's official web portal to all federal, state and local government web resources and services.